24h Messdaten per 29.11.2020 um 22:36:01

Datum Zeit Luftdruck Temp Balkon Feuchte Balkon Temp Strasse Feuchte Strasse Wind km/h Wind Boe Wind aus (Grad) Regen l/15min Licht Lux Sonne h/Monat
29.11.20 22:36:01 1023 -5.3 61 0.0
29.11.20 22:31:01 1023 -5.0 62 0.0
29.11.20 22:26:01 1023 -4.8 61 0.0
29.11.20 22:21:02 1023 -4.5 61 0.0
29.11.20 22:16:01 1023 -5.0 61 0.0
29.11.20 22:11:01 1023 -5.4 62 0.0
29.11.20 22:06:01 1024 -5.2 62 0.0
29.11.20 22:01:01 1024 -6.4 60 0.0
29.11.20 21:56:01 1024 -6.3 61 0.0
29.11.20 21:51:01 1023 -6.4 61 0.0
29.11.20 21:46:00 1023 -6.6 59 0.0
29.11.20 21:41:00 1024 -6.7 60 0.0 0.0 112.5 0.0
29.11.20 21:36:01 1024 -6.7 59 0.0 0.0 0 0.0
29.11.20 21:31:01 1023 -6.6 58 0.4 0.0 135 0.0
29.11.20 21:26:01 1023 -6.2 58 0.7 0.0 157.5 0.0
29.11.20 21:21:01 1023 -6.1 59 0.4 0.0 225 0.0
29.11.20 21:16:01 1023 -5.8 58 0.4 0.0 225 0.0
29.11.20 21:11:01 1023 -5.3 58 0.0 0.0 45 0.0
29.11.20 21:06:01 1023 -5.3 59 0.0 0.0 180 0.0
29.11.20 21:01:01 1023 -5.6 58 0.0 0.0 270 0.0
29.11.20 20:56:01 1023 -5.9 58 0.0 0.0 112.5 0.0
29.11.20 20:51:01 1023 -5.8 58 0.0 0.0 247.5 0.0
29.11.20 20:46:01 1023 -6.3 58 0.0 0.0 247.5 0.0
29.11.20 20:41:01 1023 -6.2 58 0.0 0.0 112.5 0.0
29.11.20 20:36:01 1023 -6.0 57 0.0 0.0 112.5 0.0
29.11.20 20:31:00 1023 -5.9 58 0.0 0.0 292.5 0.0
29.11.20 20:26:00 1023 -6.1 58 0.0 0.0 202.5 0.0
29.11.20 20:21:01 1023 -6.2 58 0.0 0.0 112.5 0.0
29.11.20 20:16:01 1023 -6.3 59 0.0 0.0 22.5 0.0
29.11.20 20:11:01 1023 -6.1 58 0.0 0.0 225 0.0
29.11.20 20:06:01 1023 -6.1 58 0.0 0.0 225 0.0
29.11.20 20:01:01 1023 -6.0 58 0.0 0.0 247.5 0.0
29.11.20 19:56:01 1023 -5.9 59 0.0 0.0 225 0.0
29.11.20 19:51:01 -5.8 58 0.0 0.0 292.5 0.0
29.11.20 19:46:01 1023 -5.4 59 0.0 0.0 180 0.0
29.11.20 19:41:01 1023 -5.3 60 0.0 0.0 247.5 0.0
29.11.20 19:36:01 1023 -5.2 58 0.0 0.0 270 0.0
29.11.20 19:31:01 1023 -5.4 57 0.0 0.0 270 0.0
29.11.20 19:26:01 1023 -5.1 57 0.0 0.0 247.5 0.0
29.11.20 19:21:01 1023 -5.2 57 0.0 0.0 292.5 0.0
29.11.20 19:16:01 -5.4 58 0.0 0.0 112.5 0.0
29.11.20 19:11:01 1023 -5.2 57 0.0 0.0 247.5 0.0
29.11.20 19:06:01 1023 -5.1 57 0.0 0.0 180 0.0
29.11.20 19:01:01 1023 -4.9 57 0.0 0.0 180 0.0
29.11.20 18:56:01 1023 -4.7 57 0.0 0.0 157.5 0.0
29.11.20 18:51:01 1023 -4.7 57 0.0 0.0 315 0.0
29.11.20 18:46:01 1023 -4.6 56 0.0 0.0 112.5 0.0
29.11.20 18:41:01 -4.5 57 0.0 0.0 90 0.0
29.11.20 18:36:01 1023 -4.4 57 0.0 0.0 135 0.0
29.11.20 18:31:01 1023 -4.5 56 0.0 0.0 315 0.0
29.11.20 18:26:01 1023 -4.2 56 0.0 0.0 22.5 0.0
29.11.20 18:21:01 1023 -4.2 55 0.0 0.0 270 0.0
29.11.20 18:16:01 1023 -4.3 55 0.0 0.0 135 0.0
29.11.20 18:11:01 1023 -4.3 55 0.0 0.0 247.5 0.0
29.11.20 18:06:02 1023 -3.9 55 0.0 0.0 67.5 0.0
29.11.20 18:01:02 1023 -3.8 54 0.0 0.0 270 0.0
29.11.20 17:56:01 1023 -3.8 55 0.0 0.0 337.5 0.0
29.11.20 17:51:01 1023 -3.8 54 0.0 0.0 247.5 0.0
29.11.20 17:46:01 1023 -3.9 53 0.0 0.0 225 0.0
29.11.20 17:41:01 1023 -3.9 53 0.0 0.0 247.5 0.0
29.11.20 17:36:02 1023 -4.1 52 0.0 0.0 270 0.0
29.11.20 17:31:02 1023 -4.1 52 0.0 0.0 315 0.0
29.11.20 17:26:02 1023 -3.9 52 0.0 0.0 225 0.0
29.11.20 17:21:02 1023 -3.7 51 0.0 0.0 315 0.0
29.11.20 17:16:01 1023 0.0 0.0 315 0.0
29.11.20 17:11:01 1023 -3.5 50 0.0 0.0 337.5 0.0
29.11.20 17:06:01 1023 -3.3 50 0.0 0.0 247.5 0.0
29.11.20 17:01:01 1023 -2.9 49 0.0 0.0 292.5 0.0
29.11.20 16:56:01 1023 -3.3 48 0.0 1.8 315 0.0
29.11.20 16:51:02 1023 -3.1 48 0.0 0.0 225 0.0
29.11.20 16:46:01 1023 -2.7 47 0.0 0.0 22.5 0.0
29.11.20 16:41:01 1023 -2.6 47 0.0 0.0 247.5 0.0
29.11.20 16:36:02 1023 -2.4 46 0.0 0.0 247.5 0.0
29.11.20 16:31:02 1023 -2.4 44 0.0 0.0 292.5 0.0
29.11.20 16:26:02 1023 -1.9 44 0.0 0.0 270 0.0
29.11.20 16:21:01 1023 -1.7 43 0.0 0.0 247.5 0.0
29.11.20 16:16:01 1023 -1.4 44 0.0 0.0 247.5 0.0
29.11.20 16:11:01 1022 -1.3 43 0.0 0.0 22.5 0.0
29.11.20 16:06:01 1022 -1.1 43 0.0 0.0 22.5 0.0
29.11.20 16:01:01 1022 -1.2 41 0.0 2.2 247.5 0.0
29.11.20 15:56:01 1022 -1.0 41 0.0 0.0 22.5 0.0
29.11.20 15:51:01 1022 -1.0 40 0.0 0.0 22.5 0.0
29.11.20 15:46:01 -0.6 40 0.4 0.0 67.5 0.0
29.11.20 15:41:01 1022 -0.5 40 0.4 0.0 247.5 0.0
29.11.20 15:36:02 1022 -0.4 40 0.0 0.0 270 0.0
29.11.20 15:31:01 1022 -0.1 39 0.0 0.0 270 0.0
29.11.20 15:26:01 1022 -0.1 39 0.7 0.0 247.5 0.0
29.11.20 15:21:01 1022 0.0 39 1.4 0.0 270 0.0
29.11.20 15:16:01 1022 0.1 39 1.4 4.0 270 0.0
29.11.20 15:11:01 1022 0.2 38 1.1 4.3 202.5 0.0
29.11.20 15:06:01 1022 1.1 2.2 22.5 0.0
29.11.20 15:01:01 1022 0.3 36 1.1 1.8 180 0.0
29.11.20 14:56:01 1022 0.4 36 1.4 4.3 225 0.0
29.11.20 14:51:02 1022 2.2 5.0 247.5 0.0
29.11.20 14:46:02 1022 0.7 35 2.5 2.9 247.5 0.0
29.11.20 14:41:02 1022 0.8 35 2.2 2.2 247.5 0.0
29.11.20 14:36:01 1022 0.9 34 1.4 2.2 180 0.0
29.11.20 14:31:01 1022 0.9 34 1.4 3.6 247.5 0.0
29.11.20 14:26:01 1022 1.0 34 1.4 2.9 247.5 0.0
29.11.20 14:21:01 1022 1.1 34 1.8 2.9 225 0.0
29.11.20 14:16:01 1022 1.0 35 1.8 1.4 202.5 0.0
29.11.20 14:11:01 1022 1.0 35 1.4 3.2 225 0.0
29.11.20 14:06:01 1022 1.1 34 1.8 2.9 180 0.0
29.11.20 14:01:01 1022 1.1 34 2.5 3.2 202.5 0.0
29.11.20 13:56:01 1022 1.1 33 2.9 3.2 180 0.0
29.11.20 13:51:02 1022 1.2 31 2.9 3.6 315 0.0
29.11.20 13:46:02 1022 1.4 33 2.2 4.7 180 0.0
29.11.20 13:41:02 1022 1.3 33 1.8 2.9 135 0.0
29.11.20 13:36:01 1022 1.3 31 1.4 0.0 270 0.0
29.11.20 13:31:01 1022 1.5 30 1.4 3.2 247.5 0.0
29.11.20 13:26:01 1022 1.5 25 1.8 1.8 225 0.0
29.11.20 13:21:02 1022 2.1 26 1.8 3.2 247.5 0.0
29.11.20 13:16:02 1022 1.7 20 1.8 3.2 247.5 0.0
29.11.20 13:11:02 1022 2.1 23 2.2 2.2 270 0.0
29.11.20 13:06:02 1022 2.0 21 1.8 4.3 157.5 0.0
29.11.20 13:01:02 1022 1.9 23 1.8 0.0 247.5 0.0
29.11.20 12:56:02 1022 2.3 20 2.9 8.3 270 0.0
29.11.20 12:51:02 2.1 20 2.5 2.9 225 0.0
29.11.20 12:46:02 1022 2.3 20 2.2 0.0 225 0.0
29.11.20 12:41:02 1022 2.6 20 2.2 2.5 292.5 0.0
29.11.20 12:36:03 1022 1.1 31 1.4 2.2 202.5 0.0
29.11.20 12:31:02 1022 0.8 35 1.8 3.2 0 0.0
29.11.20 12:26:02 1022 0.8 35 2.2 4.7 337.5 0.0
29.11.20 12:21:02 1022 1.8 4.3 270 0.0
29.11.20 12:16:02 1022 0.8 36 1.8 4.0 247.5 0.0
29.11.20 12:11:02 1022 1.0 36 1.4 1.4 337.5 0.0
29.11.20 12:06:02 1022 0.8 38 1.4 2.2 180 0.0
29.11.20 12:01:02 1022 0.7 37 1.4 1.4 135 0.0
29.11.20 11:56:02 1022 0.6 36 1.8 1.8 225 0.0
29.11.20 11:51:02 1022 0.9 35 2.2 3.2 315 0.0
29.11.20 11:46:02 1022 1.3 33 1.4 3.2 247.5 0.0
29.11.20 11:41:02 1022 1.4 32 1.8 4.7 180 0.0
29.11.20 11:36:01 1022 1.6 32 2.5 1.8 67.5 0.0
29.11.20 11:31:01 1022 1.7 34 2.9 5.0 247.5 0.0
29.11.20 11:26:01 1022 1.6 34 3.6 4.7 247.5 0.0
29.11.20 11:21:02 1022 1.4 36 3.2 4.3 225 0.0
29.11.20 11:16:02 1022 2.5 6.1 225 0.0
29.11.20 11:11:02 1022 1.1 35 3.2 1.8 270 0.0
29.11.20 11:06:01 1022 1.1 36 3.2 1.8 270 0.0
29.11.20 11:01:01 1022 3.6 8.3 247.5 0.0
29.11.20 10:56:01 1022 0.8 39 2.9 2.5 67.5 0.0
29.11.20 10:51:02 1022 0.6 38 2.9 4.7 247.5 0.0
29.11.20 10:46:02 1022 0.6 37 2.9 2.2 315 0.0
29.11.20 10:41:02 1023 1.0 37 2.5 5.4 247.5 0.0
29.11.20 10:36:02 0.9 38 2.5 4.7 225 0.0
29.11.20 10:31:01 1022 0.7 37 2.2 2.9 45 0.0
29.11.20 10:26:01 1022 2.5 0.0 247.5 0.0
29.11.20 10:21:02 1022 0.8 38 3.6 3.6 292.5 0.0
29.11.20 10:16:01 1023 0.5 39 3.2 4.7 247.5 0.0
29.11.20 10:11:01 1022 3.2 5.4 247.5 0.0
29.11.20 10:06:01 1022 0.3 40 3.2 9.7 247.5 0.0
29.11.20 10:01:01 1022 0.2 40 2.9 4.3 270 0.0
29.11.20 09:56:01 1022 0.0 41 2.5 4.7 247.5 0.0
29.11.20 09:51:02 1022 0.1 42 3.2 5.0 247.5 0.0
29.11.20 09:46:02 1022 0.1 42 2.9 3.2 270 0.0
29.11.20 09:41:02 1022 0.2 43 2.9 4.0 247.5 0.0
29.11.20 09:36:02 1022 0.1 44 3.2 7.2 180 0.0
29.11.20 09:31:02 1022 -0.1 44 4.3 3.6 247.5 0.0
29.11.20 09:26:02 1022 -0.2 44 4.3 5.0 247.5 0.0
29.11.20 09:21:01 1022 -0.2 44 3.2 7.2 270 0.0
29.11.20 09:16:01 1022 -0.2 44 2.9 4.0 247.5 0.0
29.11.20 09:11:01 1022 -0.1 45 3.6 2.2 270 0.0
29.11.20 09:06:01 1022 0.0 45 3.2 4.3 22.5 0.0
29.11.20 09:01:01 1022 0.0 46 3.2 4.7 0 0.0
29.11.20 08:56:01 1022 -0.2 46 3.6 5.0 292.5 0.0
29.11.20 08:51:02 1022 -0.1 46 3.2 4.3 112.5 0.0
29.11.20 08:46:02 1022 -0.2 47 2.5 6.1 225 0.0
29.11.20 08:41:01 1021 -0.1 48 2.5 4.7 157.5 0.0
29.11.20 08:36:02 1021 -0.1 49 3.6 1.8 157.5 0.0
29.11.20 08:31:02 1021 -0.1 49 4.3 2.5 225 0.0
29.11.20 08:26:02 1021 -0.1 50 4.3 10.1 247.5 0.0
29.11.20 08:21:02 1021 0.0 50 4.0 10.4 247.5 0.0
29.11.20 08:16:02 1021 0.1 51 4.0 6.5 270 0.0
29.11.20 08:11:02 0.1 53 4.0 3.6 270 0.0
29.11.20 08:06:01 1021 0.2 53 3.2 3.6 225 0.0
29.11.20 08:01:01 1021 0.2 55 3.2 7.9 247.5 0.0
29.11.20 07:56:01 1021 0.2 55 3.2 5.4 247.5 0.0
29.11.20 07:51:02 1021 0.1 57 3.2 3.2 337.5 0.0
29.11.20 07:46:02 1021 0.1 59 3.2 5.4 22.5 0.0
29.11.20 07:41:02 0.2 59 2.9 2.9 315 0.0
29.11.20 07:36:02 1021 0.1 61 2.9 2.9 315 0.0
29.11.20 07:31:02 1021 0.1 63 2.9 2.9 315 0.0
29.11.20 07:26:02 1021 0.1 64 2.9 6.5 270 0.0
29.11.20 07:21:02 1021 0.1 64 2.2 4.0 247.5 0.0
29.11.20 07:16:02 1021 0.1 65 1.4 2.9 270 0.0
29.11.20 07:11:02 1021 0.0 66 2.2 2.9 247.5 0.0
29.11.20 07:06:03 1021 0.0 66 2.5 3.2 135 0.0
29.11.20 07:01:03 0.0 66 2.9 2.9 135 0.0
29.11.20 06:56:03 1021 0.1 67 2.5 2.9 225 0.0
29.11.20 06:51:04 1021 0.1 67 2.5 4.7 270 0.0
29.11.20 06:46:04 1021 0.1 68 2.5 4.3 247.5 0.0
29.11.20 06:41:04 1020 0.1 68 1.8 3.2 247.5 0.0
29.11.20 06:36:06 1020 0.3 68 2.5 1.8 225 0.0
29.11.20 06:31:06 1020 0.4 69 2.9 1.8 247.5 0.0
29.11.20 06:26:06 1020 0.4 69 2.2 2.9 270 0.0
29.11.20 06:21:02 1020 0.6 70 1.4 6.8 247.5 0.0
29.11.20 06:16:02 1020 0.7 70 1.8 1.8 270 0.0
29.11.20 06:11:02 1021 0.7 70 2.5 0.0 67.5 0.0
29.11.20 06:06:02 1021 0.7 70 1.8 4.7 270 0.0
29.11.20 06:01:02 1021 0.7 70 2.2 4.0 45 0.0
29.11.20 05:56:02 1021 0.8 70 2.5 0.0 225 0.0
29.11.20 05:51:02 1020 0.7 71 2.2 3.2 180 0.0
29.11.20 05:46:02 1020 0.7 71 2.5 2.5 247.5 0.0
29.11.20 05:41:02 1020 0.8 71 2.9 4.3 180 0.0
29.11.20 05:36:01 1020 0.7 71 3.2 4.3 270 0.0
29.11.20 05:31:01 1020 0.8 71 3.6 3.6 180 0.0
29.11.20 05:26:01 1020 0.9 71 2.9 8.6 247.5 0.0
29.11.20 05:21:02 1020 0.9 71 2.9 5.0 270 0.0
29.11.20 05:16:02 1020 0.9 71 2.5 1.8 202.5 0.0
29.11.20 05:11:02 0.9 71 2.5 5.0 112.5 0.0
29.11.20 05:06:01 1020 1.0 71 2.5 2.5 270 0.0
29.11.20 05:01:01 1020 2.2 6.1 247.5 0.0
29.11.20 04:56:01 1020 1.0 71 2.9 6.1 315 0.0
29.11.20 04:51:02 1020 0.9 71 3.6 3.2 22.5 0.0
29.11.20 04:46:01 1020 0.9 71 3.6 6.1 247.5 0.0
29.11.20 04:41:01 1020 0.8 71 3.6 4.3 157.5 0.0
29.11.20 04:36:02 1020 0.9 71 2.9 4.0 247.5 0.0
29.11.20 04:31:02 1020 0.9 71 2.9 6.8 225 0.0
29.11.20 04:26:02 1021 0.9 71 2.5 2.5 247.5 0.0
29.11.20 04:21:02 1021 0.9 71 2.5 2.2 270 0.0
29.11.20 04:16:02 1020 0.9 71 2.2 7.6 247.5 0.0
29.11.20 04:11:02 1021 0.9 71 2.2 3.6 247.5 0.0
29.11.20 04:06:02 1021 0.9 71 2.2 2.9 0 0.0
29.11.20 04:01:02 1020 0.9 71 2.2 2.5 337.5 0.0
29.11.20 03:56:02 1020 2.2 5.0 247.5 0.0
29.11.20 03:51:02 1021 0.8 71 2.9 3.2 225 0.0
29.11.20 03:46:02 1020 0.8 71 2.5 3.2 157.5 0.0
29.11.20 03:41:01 1020 0.8 71 2.5 4.3 247.5 0.0
29.11.20 03:36:02 1020 0.8 71 2.2 2.9 225 0.0
29.11.20 03:31:02 1020 0.8 71 1.8 3.6 247.5 0.0
29.11.20 03:26:02 1020 0.8 71 1.8 4.0 225 0.0
29.11.20 03:21:02 1020 0.7 71 1.8 2.2 247.5 0.0
29.11.20 03:16:02 1020 0.7 71 1.4 98 1.4 3.2 247.5 0.0
29.11.20 03:11:02 1020 0.6 71 1.8 4.7 247.5 0.0
29.11.20 03:06:02 1020 0.6 71 2.2 2.5 337.5 0.0
29.11.20 03:01:02 1020 0.6 71 2.2 5.0 247.5 0.0
29.11.20 02:56:02 1020 0.5 71 2.5 8.6 247.5 0.0
29.11.20 02:50:01 1020 0.5 71 2.5 0.0 247.5 0.0
29.11.20 02:45:01 1021 0.4 71 2.5 0.0 270 0.0
29.11.20 02:40:01 1020 0.4 71 2.5 0.0 270 0.0
29.11.20 02:35:00 1020 0.4 71 1.4 5.0 247.5 0.0
29.11.20 02:30:00 1020 0.3 71 1.8 1.4 292.5 0.0
29.11.20 02:25:00 1020 0.3 71 1.8 1.4 292.5 0.0
29.11.20 02:20:01 1020 0.3 71 1.4 0.0 202.5 0.0
29.11.20 02:15:01 1020 0.3 71 1.4 1.4 315 0.0
29.11.20 02:10:01 1020 0.3 71 1.4 1.4 315 0.0
29.11.20 02:05:01 1020 0.3 71 0.7 0.0 90 0.0
29.11.20 02:00:01 1020 0.4 70 1.1 1.8 247.5 0.0
29.11.20 01:55:01 1020 0.3 71 1.1 1.8 247.5 0.0
29.11.20 01:50:01 1020 0.3 71 1.1 0.0 270 0.0
29.11.20 01:45:01 1020 0.4 70 1.4 0.0 67.5 0.0
29.11.20 01:40:01 1020 0.4 70 1.4 0.0 67.5 0.0
29.11.20 01:35:00 1020 1.8 2.9 315 0.0
29.11.20 01:30:00 1020 0.4 70 2.5 2.5 135 0.0
29.11.20 01:25:00 1020 0.4 70 2.5 2.5 135 0.0
29.11.20 01:20:00 1020 0.4 70 2.9 4.0 180 0.0
29.11.20 01:15:00 1020 0.4 70 1.4 3.2 270 0.0
29.11.20 01:10:00 1020 0.4 70 1.4 3.2 270 0.0
29.11.20 01:05:00 1020 1.1 5.0 225 0.0
29.11.20 01:00:00 1020 0.4 70 2.2 2.2 180 0.0
29.11.20 00:55:00 1020 0.4 70 2.2 2.2 180 0.0
29.11.20 00:50:01 1020 0.4 70 1.4 3.6 225 0.0
29.11.20 00:45:00 1020 0.3 70 1.4 2.5 45 0.0
29.11.20 00:40:00 1020 0.4 70 1.4 2.5 45 0.0
29.11.20 00:35:01 1020 0.3 70 1.4 2.9 247.5 0.0
29.11.20 00:30:01 1020 0.2 70 1.4 1.4 292.5 0.0
29.11.20 00:25:01 1020 0.2 70 1.4 1.4 292.5 0.0
29.11.20 00:20:01 1020 0.0 70 1.1 1.4 225 0.0
29.11.20 00:15:00 1020 -0.1 70 1.4 0.0 202.5 0.0
29.11.20 00:10:00 1020 -0.1 70 1.4 0.0 202.5 0.0
29.11.20 00:05:01 1020 -0.2 70 1.4 0.0 270 0.0
29.11.20 00:00:01 1020 -0.2 70 1.4 0.0 315 0.0
28.11.20 23:55:01 1020 -0.3 70 1.4 0.0 315 0.0
28.11.20 23:50:01 1020 -0.3 70 1.4 5.8 270 0.0
28.11.20 23:45:01 1020 -0.3 70 1.4 2.9 292.5 0.0
28.11.20 23:40:01 1020 1.4 2.9 292.5 0.0
28.11.20 23:35:01 1020 -0.4 69 1.4 0.0 225 0.0
28.11.20 23:30:01 1020 -0.4 69 0.4 3.2 225 0.0
28.11.20 23:25:01 1020 -0.5 69 0.4 3.2 225 0.0
28.11.20 23:20:01 1020 -0.6 69 0.0 0.0 292.5 0.0
28.11.20 23:15:01 1020 -0.6 69 0.4 1.4 247.5 0.0
28.11.20 23:10:01 1020 -0.6 69 0.4 1.4 247.5 0.0
28.11.20 23:05:00 1020 -0.6 69 0.4 1.4 270 0.0
28.11.20 23:00:00 1020 -0.5 69 0.4 0.0 90 0.0
28.11.20 22:55:00 1020 -0.9 68 0.4 0.0 90 0.0
28.11.20 22:50:01 1020 -1.1 67 0.4 0.0 180 0.0
28.11.20 22:45:00 1020 -1.1 67 0.7 0.0 180 0.0
28.11.20 22:40:00 1020 -1.0 67 0.7 0.0 180 0.0
Index
© 2002-2012 Thomas Dreßler
Alle Rechte vorbehalten
letzte Scriptänderung 12.11.2012